Regional Weather Roundup
Issued by NWS

Home | Current Version | Previous Version | Graphics & Text | Print | Product List | Glossary On
Versions: 1 2 3 4 5 6 7 8 9 10 11 12 13 14 15 16 17 18 19 20 21 22 23 24 25 26 27 28 29 30 31 32 33 34 35 36 37 38 39 40 41 42 43 44 45 46 47 48 49 50
000
ASUS45 KABQ 201601
RWRNM
NEW MEXICO REGIONAL WEATHER ROUNDUP
NATIONAL WEATHER SERVICE ALBUQUERQUE NM
1000 AM MDT FRI OCT 20 2017

NOTE: "FAIR" MEANS FEW OR NO CLOUDS BELOW 12,000 FEET AGL WITH NO
       SIGNIFICANT WEATHER OR OBSTRUCTIONS TO VISION.

      THIS PRODUCT IS RELEASED AS TWO VERSIONS.  ONE VERSION NEAR
      THE TOP OF THE HOUR CONTAINING PRELIMINARY DATA FROM ALBUQUERQUE
      AND OTHER STATIONS.  A FINAL VERSION WITH ADDITIONAL DATA IS
      ISSUED ABOUT 10 MINUTES AFTER THE HOUR.

NMZ501-503-504-510>518-201700-
NORTHWEST PLATEAU/NORTHCENTRAL MOUNTAINS

CITY           SKY/WX    TMP DP  RH WIND       PRES   REMARKS
FARMINGTON     FAIR      58  39  49 E6        29.96F
SANTA FE       PTSUNNY   54  47  77 W7        30.06S
TAOS           FAIR      56  41  57 SW5       30.08F
ANGEL FIRE     FAIR      52  36  54 W22G32    30.07F

$$
NMZ402-403-502-505>509-201700-
WESTCENTRAL MOUNTAINS/SOUTHWEST MOUNTAINS

CITY           SKY/WX    TMP DP  RH WIND       PRES   REMARKS
GALLUP         FAIR      59  36  42 SW14      30.04F
GRANTS         FAIR      53  45  75 CALM      30.09S
SILVER CITY    FAIR      60  46  59 CALM      30.09R

$$
NMZ407-409-411-412-201700-
SOUTHERN DESERTS

CITY           SKY/WX    TMP DP  RH WIND       PRES   REMARKS
DEMING         FAIR      63  53  70 NE5       30.05R
LAS CRUCES     FAIR      63  52  68 E7        30.07S
HOLLOMAN AFB   PTSUNNY   61  61 100 CALM      30.08R
ALAMOGORDO     FAIR      57  52  82 N5        30.08S
T OR C         FAIR      59  52  77 CALM      30.06R

$$
NMZ519>523-201700-
CENTRAL VALLEYS/CENTRAL HIGHLANDS

CITY           SKY/WX    TMP DP  RH WIND       PRES   REMARKS
ALBUQUERQUE    FAIR      56  49  77 S10       30.04S
DOUBLE EAGLE   MOSUNNY   55  46  71 S10       30.06S
MORIARTY ARPT  FAIR      58  45  62 CALM      30.07S
CLINES CORNERS FAIR      55  43  63 SW23G33   30.08R
BELEN          FAIR      60  48  65 S15       30.04S
SOCORRO        FAIR      58  50  73 S15       30.04S

$$
NMZ524>526-539-540-201700-
SOUTHCENTRAL MOUNTAINS

CITY           SKY/WX    TMP DP  RH WIND       PRES   REMARKS
RUIDOSO        FAIR      59  45  58 SW13      30.13F

$$
NMZ527>531-201700-
NORTHEAST HIGHLANDS/NORTHEAST PLAINS

CITY           SKY/WX    TMP DP  RH WIND       PRES   REMARKS
LAS VEGAS      FAIR      61  39  44 SW17      30.01S
RATON          FAIR      52  43  71 S5        29.94F
CLAYTON        FAIR      56  50  80 SW12      29.87F

$$
NMZ532>537-201700-
EASTCENTRAL PLAINS

CITY           SKY/WX    TMP DP  RH WIND       PRES   REMARKS
SANTA ROSA     FAIR      61  49  64 S9        29.98S
TUCUMCARI      FAIR      67  52  58 SW24G30   29.90S
CANNON AFB     FAIR      64  59  82 SW20      29.99F
CLOVIS AIRPORT FAIR      63  54  72 SW14G21   29.98F

$$
NMZ028-029-538-201700-
SOUTHEAST PLAINS

CITY           SKY/WX    TMP DP  RH WIND       PRES   REMARKS
ROSWELL        FAIR      65  56  72 S15       30.00R
ARTESIA        FAIR      66  57  72 SE15      30.00S
CARLSBAD       FAIR      67  58  72 S13       29.99S
HOBBS          PTSUNNY   63  57  82 S17       30.03S


$$



USA.gov is the U.S. government's official web portal to all federal, state and local government web resources and services.